Regional Weather Roundup
Issued by NWS

Home | Current Version | Previous Version | Text Only | Print | Product List | Glossary Off
Versions: 1 2 3 4 5 6 7 8 9 10 11 12 13 14 15 16 17 18 19 20 21 22 23 24 25 26 27 28 29 30 31 32 33 34 35 36 37 38 39 40 41 42 43 44 45 46 47 48 49 50

000
ASUS45 KTFX 220319
RWRMT
MONTANA HOURLY WEATHER ROUNDUP
NATIONAL WEATHER SERVICE GREAT FALLS MT
919 PM MDT TUE OCT 21 2014

NOTE: "FAIR" INDICATES FEW OR NO CLOUDS BELOW 12000 FEET WITH NO
SIGNIFICANT WEATHER AND/OR OBSTRUCTIONS TO VISIBILITY.

* THESE STATIONS ARE NOT UNDER NWS QUALITY CONTROL. THEY DO NOT
   REPORT WEATHER SUCH AS PRECIPITATION OR FOG.

MTZ001>007-043-220400-
WEST OF THE DIVIDE
CITY           SKY/WX    TMP DP  RH WIND       PRES   REMARKS
KALISPELL      CLOUDY    45  41  86 S6        29.96R
MISSOULA       CLOUDY    45  43  93 CALM      30.02R
BUTTE          MOCLDY    36  34  92 CALM      30.03R
MULLAN PASS    FOG       36  36 100 VRB3      30.00S
* ESSEX        N/A       43  41  93 N/A        N/A
* LINCOLN      N/A       40  37  89 S5G10      N/A   WCI  36
* POLSON       N/A       42  40  93 SE1        N/A
* RONAN APT    PTCLDY    46  43  89 N/A        N/A
* SEELEY LAKE  N/A       41  40  96 N/A        N/A
* THOMP F APT  PTCLDY    37  27  67 N7G13      N/A   WCI  32
$$

MTZ008-052>055-220400-
SOUTHWEST MONTANA
CITY           SKY/WX    TMP DP  RH WIND       PRES   REMARKS
BOZEMAN        CLOUDY    39  37  93 NE3       30.01S
DILLON         LGT SNOW  37  34  89 S14       30.02S WCI  28
W YELLOWSTONE  MOCLDY    32  32 100 CALM      30.07R
* THREE FORKS  CLOUDY    43  43 100 N/A        N/A
* BOULDER HILL N/A       39  32  76 S2G8       N/A
* MONIDA PASS  N/A       31  30  96 N/A        N/A
* RAYNOLDS PAS N/A       32   4  30 E2         N/A
* WHITEHALL    N/A       45  38  77 W11G17     N/A
* WISE RIVER   N/A       40  32  73 NW7G12     N/A   WCI  35
$$

MTZ009>010-012-014-046-048-049-054-220400-
EAST SLOPES AND CENTRAL MONTANA
CITY           SKY/WX    TMP DP  RH WIND       PRES   REMARKS
CUT BANK       CLOUDY    45  36  71 W18       29.81S
GREAT FALLS    CLOUDY    45  39  80 SW17      29.86R
HELENA         CLOUDY    48  36  63 W10       29.96S
MALMSTROM AFB  CLOUDY    45  41  86 SW18      29.87S
* CONRAD       CLOUDY    46  43  89 SW6        N/A
* DEARBORN     N/A       48  37  66 E3G9       N/A
* EAST GLACIER N/A       43  31  63 NW22G27    N/A
* MONARCH      N/A       39  33  79 SW10G17    N/A   WCI  32
* PENDROY      N/A       44  34  68 W8G16      N/A
* ROGERS PASS  N/A       38  34  86 SE16G26    N/A   WCI  29
* SAINT MARY   N/A       46  33  61 S9G22      N/A
* SWEET GRASS  N/A       48  40  74 S20G26     N/A
* WHITE SULPH  N/A       39  36  89 S6G16      N/A   WCI  35
$$

MTZ011-013-016-021-035-040-045-047-050-051-220400-
NORTH CENTRAL MONTANA
CITY           SKY/WX    TMP DP  RH WIND       PRES   REMARKS
HAVRE          LGT RAIN  48  46  93 SW20      29.78R
LEWISTOWN      LGT RAIN  45  39  80 W12G22    29.89R
* CHINOOK      MOCLDY    52  46  80 SW14G22   29.77R
* FORT BENTON  CLOUDY    48  43  83 S5        29.86S
* CHESTER      N/A       47  45  93 SW5G10     N/A
* DENTON       N/A       45  42  89 W14G19     N/A
* GEYSER       N/A       42  39  89 SW22G27    N/A
* JUDITH GAP   N/A       42  39  89 SW6G11     N/A
* LOMA         N/A       48  45  89 SW9        N/A
$$

MTZ017>020-022>027-061-062-220400-
NORTHEAST MONTANA
CITY           SKY/WX    TMP DP  RH WIND       PRES   REMARKS
GLASGOW        CLOUDY    55  45  69 W8        29.68R
GLENDIVE       MOCLDY    64  46  52 W13G20    29.67R
JORDAN         CLOUDY    55  46  72 W15       29.74R
SIDNEY         PTCLDY    48  41  77 CALM      29.62R
WOLF POINT     MOCLDY    63  45  52 W18G26    29.64R
* BEAVER HILL  N/A       66  39  37 SW14       N/A
* CIRCLE       N/A       61  47  60 SW12G17    N/A
* LINDSAY DVD  N/A       62  45  54 NW14G22    N/A
* NAVAJO       N/A       58  42  55 W7         N/A
* SACO         N/A       56  47  72 W9G14      N/A
$$

MTZ028>042-056>058-220400-
SOUTHCENTRAL AND SOUTHEAST MONTANA
CITY           SKY/WX    TMP DP  RH WIND       PRES   REMARKS
BAKER          CLOUDY    61  45  56 NW9       29.69R
BILLINGS       PTCLDY    52  30  43 W26G41    29.87R
LIVINGSTON     MOCLDY    46  30  54 W25G32    29.95S
MILES CITY     LGT RAIN  64  43  47 SW10      29.71R
* LAUREL APT   PTCLDY    52  30  43 W25G40     N/A
* ROUNDUP APT  PTCLDY    48  32  54 W18G28     N/A
* ALZADA       N/A       62  39  43 W8         N/A
* HYSHAM       N/A       59  30  33 W17G26     N/A
* LAME DEER    N/A       62  30  30 W20G29     N/A
* REED POINT   N/A       48  33  56 W17G25     N/A
* ROSCOE HILL  N/A       46  15  29 N6G13      N/A
$$

REGIONAL REPORTS...DAKOTAS
CITY           SKY/WX    TMP DP  RH WIND       PRES   REMARKS
WILLISTON      PTCLDY    46  39  77 CALM      29.58S
DICKINSON      PTCLDY    57  45  64 S8        29.62R
BEACH          N/A       57  39  51 S21       29.69R
CROSBY         CLEAR     45  41  86 CALM      29.59S
TIOGA          CLEAR     46  46 100 CALM      29.62S
BISMARCK       CLEAR     66  41  40 SE15      29.68S
GRAND FORKS    PTCLDY    55  41  59 S18G32    29.86R
FARGO          CLEAR     57  41  55 SE24G35   29.91S
BUFFALO SD     CLEAR     63  41  45 S9        29.60S
RAPID CITY     MOCLDY    63  43  48 SW8       29.76S
$$

REGIONAL REPORTS...WYOMING/IDAHO/WASHINGTON
CITY           SKY/WX    TMP DP  RH WIND       PRES   REMARKS
GILLETTE       CLOUDY    63  34  34 SW14      29.79R
SHERIDAN       CLOUDY    63  34  34 NW21      29.77R
CODY           PTCLDY   N/A N/A N/A W14G24    29.93R
YELLOWSTONE LA MOCLDY    32  28  85 CALM      30.09R
SALMON         PTCLDY   N/A N/A N/A N/A        N/A
MULLAN PASS    FOG       36  36 100 VRB3      30.00S
SAND POINT     CLOUDY    46  46 100 SW3       29.96S
SPOKANE        FAIR      52  43  72 S9        29.97S
$$

REGIONAL REPORTS...ALBERTA
CITY           SKY/WX    TMP DP  RH WIND       PRES   REMARKS
CALGARY        FAIR      50  27  41 W6        29.75R
LETHBRIDGE     MOCLDY    54  34  47 W20G29    29.77R
MEDICINE HAT   CLOUDY    50  48  93 SW7       29.70F
EDMONTON       MOCLDY    34  30  85 S5        29.70R WCI  29
WATERTON GATE  N/A       46  32  58 SW18G28    N/A
CARDSTON       N/A       48  34  59 W14G21     N/A
MILK RIVER     N/A       48  39  71 W16        N/A
$$

REGIONAL REPORTS...SASKATCHEWAN
CITY           SKY/WX    TMP DP  RH WIND       PRES   REMARKS
SWIFT CURRENT  MOCLDY    52  39  61 W17G28    29.63S
REGINA         MOCLDY    54  45  72 SE13      29.57S
VAL MARIE      N/A       50  43  77 W7         N/A
ASSINIBOIA     N/A       52  41  66 W10        N/A
CORONACH       N/A       54  43  67 W10        N/A

$$




USA.gov is the U.S. government's official web portal to all federal, state and local government web resources and services.